Weather in North Miami Beach

United States     25°55′57″N   80°10′00″W
temp.,
°C
wind,
m/s
gust,
m/s
humid.,
%
clouds,
%
prec.,
mm/h
press.,
hPa
HPBL,
m
23 may, mon
mon2323:00+28ese676999 0.0 10211071
02:00+27ese56685 0.1 10201006
05:00+27ese46726 0.2 1019809
08:00+27ese676955 0.4 10191045
11:00+30ese67575 0.1 10201430
14:00+31ese77525 0.1 10181675
17:00+30ese65538 0.1 10171645
20:00+28e666319 0.1 10181199
24 may, tue
tue2423:00+27e67679 0.1 10181000
02:00+27ese676770 0.1 1017938
05:00+26ese576560 0.0 1016998
08:00+27ese6761100 0.0 10171167
11:00+29ese675299 0.0 10181429
14:00+29ese775125 0.0 10171372
17:00+29ese6648100 0.0 10161296
20:00+27ese675789 0.0 10171147
25 may, wed
wed2523:00+27ese685999 0.0 10181207
02:00+27ese686898 0.0 10171104
05:00+26ese68595 0.1 10161249
08:00+27ese695991 0.1 10181328
11:00+30ese8950100 0.1 10181496
14:00+31ese8948100 0.1 10181583
17:00+29ese775896 0.3 10171420
20:00+27ese7765100 0.8 10181076
26 may, thu
thu2623:00+27ese7867100 0.3 10181125
02:00+27ese676499 0.3 10181141
05:00+27ese6762100 0.0 10171215
08:00+27ese6759100 0.0 10181324
11:00+29ese6755100 0.0 10191492
14:00+30ese6751100 0.0 10181461
17:00+29ese6658100 0.0 10171427
20:00+28ese5666100 0.1 10171073
27 may, fri
fri2723:00+27ese5669100 0.2 1017980
02:00+26se577348 1.7 1016815
05:00+26se467445 0.5 1015755
08:00+27se467016 0.8 1017892
11:00+30se555712 0.5 10171415
14:00+32se65479 0.5 10161794
17:00+31se654517 0.0 10141412
20:00+29sse65579 0.3 10141044